GFSSGP_prec_pwat_198.txt.gz
Precipitable_Water
0.54 0.58 0.62 0.54 0.37 0.35 0.30 0.35 0.46 0.46 0.51 0.65 0.65 0.67 0.66 0.81 0.74 0.63 1.29 1.39 1.47 1.52 1.55 1.58 1.60 1.57 1.53 1.44 1.39 1.37 1.30 1.25 1.23 1.31 1.30 1.34 1.33 1.33 1.29 1.28 1.33 1.44 1.49 1.44 1.37 1.29 1.29 1.30 1.35
0.63 0.59 0.55 0.42 0.30 0.26 0.31 0.42 0.40 0.46 0.56 0.60 0.57 0.68 0.65 0.63 0.98 0.99 0.93 1.22 1.33 1.45 1.47 1.50 1.55 1.56 1.53 1.42 1.36 1.31 1.27 1.35 1.32 1.39 1.32 1.40 1.33 1.28 1.25 1.21 1.29 1.49 1.45 1.42 1.36 1.29 1.27 1.31 1.39
0.59 0.62 0.39 0.32 0.30 0.24 0.30 0.40 0.42 0.46 0.49 0.51 0.50 0.73 0.73 0.73 1.01 0.95 1.05 1.08 1.25 1.33 1.41 1.41 1.40 1.41 1.40 1.32 1.27 1.21 1.21 1.49 1.35 1.32 1.35 1.35 1.36 1.30 1.29 1.25 1.29 1.39 1.39 1.37 1.33 1.27 1.26 1.31 1.37
0.52 0.48 0.40 0.22 0.23 0.28 0.34 0.39 0.43 0.44 0.44 0.43 0.51 0.59 0.89 1.10 1.06 1.09 1.10 1.15 1.14 1.22 1.32 1.32 1.31 1.34 1.35 1.32 1.25 1.24 1.21 1.48 1.34 1.29 1.41 1.39 1.41 1.39 1.38 1.31 1.31 1.37 1.40 1.39 1.32 1.27 1.27 1.29 1.35
0.52 0.43 0.25 0.24 0.26 0.29 0.34 0.35 0.35 0.35 0.37 0.38 0.50 0.57 0.77 1.07 1.15 1.11 1.06 1.18 1.11 1.19 1.30 1.35 1.32 1.34 1.32 1.34 1.19 1.20 1.16 1.43 1.37 1.33 1.35 1.30 1.42 1.48 1.43 1.37 1.32 1.34 1.35 1.34 1.32 1.29 1.25 1.25 1.33
0.38 0.38 0.24 0.23 0.27 0.32 0.36 0.38 0.36 0.30 0.35 0.40 0.49 0.62 0.76 1.15 1.17 1.15 1.12 1.10 1.18 1.09 1.19 1.30 1.35 1.33 1.33 1.37 1.31 1.19 1.21 1.29 1.30 1.33 1.32 1.23 1.38 1.45 1.46 1.41 1.40 1.38 1.39 1.40 1.39 1.28 1.23 1.22 1.28
0.38 0.32 0.25 0.28 0.28 0.31 0.36 0.42 0.36 0.35 0.35 0.37 0.45 0.55 0.78 0.96 1.11 1.11 1.05 1.05 1.15 1.16 1.15 1.25 1.37 1.39 1.39 1.32 1.29 1.21 1.26 1.34 1.33 1.40 1.30 1.24 1.24 1.41 1.47 1.41 1.38 1.38 1.45 1.46 1.45 1.39 1.29 1.24 1.31
0.43 0.33 0.25 0.29 0.27 0.29 0.39 0.41 0.43 0.40 0.35 0.46 0.52 0.51 0.59 0.81 1.03 1.04 1.04 1.04 1.16 1.19 1.19 1.23 1.30 1.38 1.41 1.37 1.32 1.26 1.22 1.28 1.32 1.36 1.31 1.23 1.18 1.27 1.43 1.49 1.43 1.39 1.44 1.47 1.45 1.46 1.40 1.30 1.31
0.44 0.27 0.24 0.28 0.30 0.33 0.41 0.39 0.45 0.45 0.39 0.40 0.43 0.44 0.52 0.72 0.87 1.05 1.07 1.03 1.13 1.22 1.24 1.28 1.30 1.30 1.33 1.35 1.30 1.23 1.18 1.32 1.33 1.31 1.28 1.24 1.18 1.27 1.40 1.41 1.40 1.45 1.43 1.44 1.45 1.46 1.47 1.38 1.29
0.37 0.29 0.30 0.38 0.37 0.35 0.39 0.39 0.40 0.38 0.37 0.38 0.40 0.48 0.60 0.60 0.67 0.73 0.85 1.00 1.05 1.10 1.16 1.26 1.30 1.30 1.40 1.35 1.31 1.24 1.22 1.32 1.32 1.29 1.25 1.24 1.22 1.19 1.23 1.26 1.32 1.39 1.49 1.61 1.60 1.46 1.40 1.39 1.36
0.43 0.31 0.39 0.40 0.43 0.43 0.40 0.40 0.44 0.37 0.32 0.37 0.37 0.43 0.47 0.48 0.49 0.48 0.49 0.54 0.79 1.11 1.26 1.35 1.34 1.46 1.44 1.43 1.41 1.32 1.25 1.26 1.26 1.25 1.26 1.25 1.20 1.15 1.14 1.18 1.34 1.39 1.46 1.54 1.60 1.54 1.41 1.34 1.37
0.36 0.41 0.42 0.41 0.43 0.40 0.35 0.39 0.34 0.35 0.33 0.40 0.42 0.43 0.44 0.44 0.46 0.47 0.48 0.52 0.53 0.57 0.69 1.16 1.38 1.43 1.49 1.54 1.46 1.43 1.40 1.38 1.32 1.31 1.27 1.16 1.06 1.04 1.08 1.15 1.36 1.46 1.53 1.59 1.58 1.54 1.44 1.31 1.43
0.37 0.38 0.39 0.40 0.40 0.39 0.41 0.36 0.35 0.36 0.42 0.44 0.44 0.44 0.43 0.44 0.47 0.50 0.56 0.60 0.62 0.59 0.66 0.81 1.21 1.36 1.47 1.55 1.61 1.61 1.58 1.51 1.44 1.42 1.31 1.23 1.14 1.19 1.18 1.23 1.34 1.43 1.61 1.66 1.57 1.54 1.43 1.30 1.37
0.40 0.39 0.38 0.40 0.40 0.41 0.37 0.38 0.41 0.41 0.45 0.42 0.42 0.41 0.41 0.42 0.44 0.49 0.54 0.56 0.61 0.66 0.68 0.75 0.96 1.22 1.40 1.41 1.48 1.47 1.52 1.59 1.58 1.50 1.47 1.45 1.40 1.35 1.36 1.36 1.35 1.39 1.52 1.53 1.55 1.52 1.44 1.38 1.49
0.43 0.33 0.35 0.38 0.40 0.37 0.40 0.30 0.33 0.39 0.41 0.39 0.40 0.42 0.43 0.43 0.48 0.51 0.58 0.60 0.64 0.68 0.73 0.74 0.78 1.00 1.16 1.30 1.39 1.46 1.53 1.66 1.70 1.74 1.73 1.59 1.55 1.50 1.52 1.46 1.43 1.40 1.50 1.45 1.40 1.48 1.47 1.40 1.47
0.34 0.34 0.25 0.35 0.37 0.39 0.37 0.23 0.34 0.39 0.38 0.37 0.40 0.43 0.43 0.50 0.57 0.63 0.67 0.68 0.71 0.72 0.74 0.79 0.83 0.83 0.87 1.03 1.21 1.36 1.51 1.59 1.52 1.68 1.69 1.64 1.66 1.62 1.55 1.56 1.52 1.46 1.50 1.43 1.35 1.37 1.37 1.36 1.47
0.33 0.24 0.26 0.28 0.38 0.36 0.32 0.25 0.33 0.38 0.39 0.38 0.42 0.45 0.46 0.53 0.62 0.68 0.71 0.74 0.74 0.76 0.77 0.78 0.83 0.83 0.87 0.88 0.96 1.19 1.34 1.51 1.66 1.53 1.45 1.54 1.60 1.57 1.52 1.57 1.58 1.55 1.46 1.35 1.34 1.30 1.36 1.41 1.55
0.25 0.26 0.27 0.27 0.34 0.32 0.27 0.25 0.33 0.40 0.41 0.41 0.45 0.48 0.51 0.58 0.64 0.70 0.73 0.76 0.78 0.79 0.77 0.78 0.81 0.82 0.87 0.89 0.89 0.91 0.94 1.06 1.20 1.25 1.21 1.37 1.50 1.63 1.57 1.59 1.54 1.59 1.48 1.34 1.38 1.34 1.43 1.51 1.51
0.35 0.30 0.27 0.29 0.34 0.30 0.28 0.28 0.31 0.37 0.38 0.38 0.41 0.44 0.50 0.60 0.67 0.72 0.75 0.74 0.73 0.74 0.72 0.70 0.75 0.82 0.86 0.85 0.80 0.79 0.77 0.85 0.89 0.99 1.15 1.28 1.37 1.51 1.55 1.60 1.59 1.54 1.53 1.31 1.38 1.39 1.43 1.46 1.51
0.32 0.28 0.26 0.29 0.33 0.31 0.28 0.24 0.29 0.32 0.34 0.38 0.39 0.43 0.51 0.56 0.56 0.57 0.60 0.62 0.64 0.64 0.67 0.65 0.67 0.73 0.84 0.90 0.90 0.89 0.89 0.91 0.89 0.90 1.03 1.24 1.27 1.36 1.44 1.47 1.46 1.45 1.61 1.46 1.45 1.41 1.42 1.46 1.49
0.28 0.26 0.24 0.25 0.28 0.30 0.27 0.20 0.24 0.28 0.28 0.33 0.37 0.41 0.43 0.44 0.46 0.49 0.51 0.52 0.54 0.58 0.58 0.57 0.59 0.65 0.72 0.84 0.97 0.93 0.90 0.92 0.89 0.84 0.92 1.04 1.17 1.25 1.34 1.39 1.40 1.39 1.48 1.36 1.45 1.45 1.32 1.17 1.22
0.21 0.30 0.27 0.25 0.22 0.16 0.26 0.13 0.19 0.23 0.25 0.29 0.33 0.36 0.38 0.41 0.44 0.46 0.49 0.50 0.53 0.54 0.52 0.50 0.49 0.52 0.60 0.70 0.81 0.85 0.80 0.75 0.86 0.92 0.94 1.04 1.23 1.25 1.34 1.35 1.35 1.36 1.37 1.41 1.48 1.43 1.25 1.11 0.95
0.23 0.26 0.24 0.23 0.21 0.20 0.19 0.17 0.18 0.25 0.27 0.28 0.32 0.35 0.39 0.44 0.47 0.48 0.52 0.55 0.58 0.61 0.60 0.57 0.48 0.43 0.44 0.57 0.71 0.83 0.83 0.90 0.93 0.97 0.96 0.98 1.20 1.21 1.29 1.34 1.37 1.35 1.39 1.45 1.48 1.35 1.15 1.12 1.05
0.26 0.22 0.21 0.20 0.17 0.11 0.16 0.18 0.16 0.21 0.24 0.24 0.29 0.33 0.38 0.41 0.45 0.50 0.57 0.66 0.66 0.65 0.62 0.58 0.53 0.48 0.44 0.41 0.55 0.74 0.84 0.88 0.92 0.98 0.97 1.03 1.13 1.19 1.23 1.35 1.35 1.42 1.47 1.45 1.40 1.25 1.17 1.09 1.04
0.23 0.18 0.11 0.08 0.08 0.08 0.16 0.15 0.16 0.21 0.26 0.28 0.29 0.33 0.37 0.41 0.44 0.48 0.50 0.57 0.64 0.68 0.73 0.68 0.65 0.59 0.49 0.42 0.48 0.58 0.79 0.91 0.98 1.05 1.05 1.05 1.09 1.14 1.21 1.36 1.39 1.45 1.50 1.53 1.35 1.21 1.12 1.11 1.05
0.20 0.19 0.13 0.09 0.10 0.12 0.18 0.14 0.17 0.27 0.29 0.31 0.36 0.40 0.44 0.45 0.49 0.52 0.54 0.55 0.55 0.56 0.58 0.73 0.61 0.54 0.49 0.47 0.50 0.58 0.74 0.85 1.01 1.13 1.11 1.13 1.11 1.13 1.27 1.39 1.48 1.45 1.51 1.46 1.35 1.21 1.21 1.17 1.09
0.19 0.17 0.24 0.18 0.18 0.16 0.15 0.16 0.28 0.31 0.31 0.34 0.37 0.38 0.38 0.42 0.48 0.49 0.45 0.43 0.43 0.47 0.59 0.56 0.55 0.51 0.45 0.41 0.54 0.58 0.73 0.79 0.97 1.09 1.14 1.14 1.14 1.15 1.24 1.29 1.28 1.31 1.49 1.41 1.39 1.25 1.20 1.13 1.10
0.21 0.22 0.14 0.17 0.12 0.11 0.12 0.16 0.19 0.30 0.32 0.37 0.35 0.34 0.37 0.42 0.43 0.43 0.41 0.40 0.44 0.44 0.47 0.52 0.52 0.47 0.48 0.48 0.53 0.59 0.73 0.80 0.99 1.09 1.12 1.14 1.18 1.22 1.22 1.24 1.24 1.31 1.32 1.37 1.38 1.27 1.20 1.12 1.12
0.15 0.16 0.18 0.19 0.19 0.14 0.12 0.13 0.30 0.27 0.27 0.29 0.31 0.31 0.32 0.34 0.36 0.37 0.37 0.40 0.45 0.46 0.45 0.48 0.53 0.48 0.50 0.55 0.54 0.56 0.70 0.84 0.92 1.07 1.10 1.18 1.24 1.23 1.20 1.22 1.21 1.24 1.28 1.32 1.34 1.28 1.14 1.08 1.07
0.20 0.19 0.20 0.14 0.11 0.15 0.15 0.11 0.25 0.28 0.28 0.30 0.29 0.31 0.34 0.35 0.36 0.34 0.34 0.38 0.42 0.46 0.45 0.44 0.46 0.46 0.46 0.49 0.51 0.53 0.72 0.81 0.74 0.99 1.11 1.16 1.17 1.18 1.18 1.19 1.24 1.30 1.29 1.29 1.34 1.19 1.09 1.07 1.09

GFSSGP_prec_pwat_201.txt.gz
Precipitable_Water
0.58 0.60 0.60 0.53 0.30 0.35 0.31 0.36 0.44 0.49 0.52 0.60 0.60 0.59 0.57 0.72 0.66 0.60 1.18 1.26 1.37 1.34 1.40 1.46 1.49 1.47 1.44 1.41 1.36 1.35 1.30 1.26 1.21 1.27 1.28 1.30 1.31 1.31 1.27 1.25 1.39 1.47 1.47 1.39 1.28 1.28 1.32 1.37 1.41
0.65 0.58 0.53 0.43 0.29 0.23 0.28 0.39 0.39 0.49 0.56 0.58 0.65 0.65 0.61 0.57 0.87 0.91 0.94 1.08 1.17 1.23 1.31 1.34 1.37 1.40 1.40 1.36 1.33 1.33 1.27 1.26 1.23 1.32 1.29 1.32 1.30 1.29 1.24 1.23 1.34 1.47 1.42 1.36 1.29 1.27 1.31 1.37 1.39
0.58 0.60 0.39 0.31 0.29 0.22 0.26 0.38 0.42 0.47 0.51 0.51 0.57 0.74 0.70 0.65 0.93 0.92 1.06 1.14 1.23 1.30 1.39 1.42 1.45 1.43 1.44 1.38 1.32 1.30 1.24 1.27 1.27 1.34 1.33 1.41 1.33 1.26 1.22 1.21 1.33 1.40 1.39 1.34 1.28 1.24 1.29 1.36 1.38
0.51 0.47 0.38 0.22 0.22 0.29 0.36 0.39 0.42 0.42 0.46 0.49 0.62 0.57 0.86 1.02 0.98 1.05 1.11 1.18 1.22 1.28 1.34 1.38 1.42 1.40 1.41 1.35 1.30 1.24 1.16 1.38 1.33 1.30 1.31 1.31 1.38 1.33 1.28 1.24 1.26 1.32 1.37 1.34 1.25 1.22 1.25 1.31 1.35
0.54 0.42 0.24 0.23 0.26 0.30 0.36 0.38 0.39 0.36 0.39 0.45 0.54 0.52 0.70 0.97 1.07 1.06 1.10 1.17 1.12 1.18 1.26 1.30 1.34 1.33 1.34 1.32 1.27 1.19 1.16 1.43 1.39 1.30 1.33 1.35 1.36 1.39 1.37 1.32 1.30 1.36 1.39 1.31 1.24 1.19 1.21 1.27 1.34
0.37 0.37 0.23 0.21 0.26 0.32 0.36 0.39 0.38 0.36 0.36 0.39 0.49 0.56 0.67 1.06 1.06 1.06 1.13 1.10 1.18 1.19 1.25 1.29 1.33 1.32 1.33 1.32 1.32 1.25 1.17 1.24 1.42 1.34 1.33 1.34 1.28 1.43 1.44 1.37 1.34 1.33 1.36 1.39 1.35 1.24 1.20 1.24 1.35
0.36 0.30 0.25 0.27 0.27 0.30 0.35 0.42 0.37 0.37 0.37 0.38 0.45 0.49 0.68 0.86 1.07 1.08 1.06 1.14 1.22 1.29 1.26 1.25 1.30 1.38 1.41 1.39 1.37 1.34 1.21 1.26 1.34 1.34 1.38 1.33 1.24 1.37 1.47 1.48 1.38 1.35 1.38 1.42 1.43 1.36 1.25 1.21 1.31
0.42 0.31 0.24 0.28 0.27 0.29 0.39 0.41 0.44 0.41 0.36 0.46 0.61 0.46 0.48 0.79 1.02 1.05 1.01 1.04 1.13 1.17 1.18 1.24 1.33 1.39 1.37 1.45 1.44 1.36 1.28 1.25 1.33 1.32 1.39 1.33 1.27 1.27 1.40 1.46 1.45 1.38 1.35 1.37 1.37 1.37 1.34 1.28 1.35
0.45 0.26 0.23 0.27 0.29 0.32 0.40 0.38 0.45 0.47 0.40 0.41 0.43 0.44 0.56 0.75 1.03 1.00 1.00 0.99 1.09 1.21 1.28 1.34 1.36 1.41 1.44 1.45 1.44 1.44 1.39 1.32 1.33 1.37 1.38 1.35 1.29 1.21 1.26 1.40 1.42 1.41 1.37 1.40 1.40 1.42 1.44 1.35 1.35
0.36 0.27 0.27 0.37 0.37 0.35 0.39 0.39 0.40 0.38 0.38 0.36 0.40 0.51 0.58 0.65 0.70 0.87 0.96 0.95 0.98 1.11 1.29 1.39 1.37 1.36 1.45 1.51 1.52 1.49 1.40 1.35 1.30 1.36 1.36 1.35 1.29 1.22 1.24 1.32 1.35 1.34 1.39 1.44 1.49 1.52 1.49 1.50 1.39
0.41 0.30 0.37 0.40 0.43 0.44 0.41 0.40 0.44 0.37 0.30 0.34 0.34 0.40 0.45 0.47 0.47 0.48 0.50 0.56 0.82 0.99 1.14 1.29 1.40 1.43 1.45 1.52 1.56 1.58 1.55 1.39 1.31 1.37 1.39 1.38 1.35 1.30 1.23 1.22 1.27 1.32 1.36 1.41 1.46 1.52 1.52 1.46 1.43
0.35 0.40 0.41 0.41 0.43 0.40 0.35 0.38 0.34 0.35 0.31 0.39 0.41 0.43 0.45 0.45 0.47 0.47 0.49 0.54 0.58 0.64 0.78 1.02 1.27 1.32 1.42 1.52 1.51 1.63 1.64 1.57 1.48 1.45 1.44 1.37 1.31 1.26 1.22 1.18 1.18 1.27 1.41 1.42 1.49 1.55 1.53 1.48 1.46
0.36 0.37 0.40 0.41 0.40 0.40 0.42 0.39 0.40 0.39 0.43 0.47 0.46 0.44 0.43 0.43 0.45 0.48 0.54 0.59 0.62 0.62 0.69 0.76 0.92 1.07 1.26 1.38 1.48 1.57 1.60 1.63 1.63 1.59 1.58 1.53 1.43 1.26 1.22 1.21 1.20 1.20 1.45 1.43 1.53 1.59 1.54 1.51 1.41
0.41 0.41 0.40 0.39 0.40 0.41 0.37 0.37 0.38 0.38 0.44 0.41 0.41 0.40 0.41 0.43 0.45 0.51 0.56 0.58 0.61 0.66 0.69 0.76 0.84 0.94 1.04 1.14 1.29 1.37 1.53 1.58 1.61 1.63 1.60 1.62 1.55 1.38 1.28 1.25 1.26 1.35 1.48 1.52 1.58 1.59 1.51 1.47 1.40
0.40 0.32 0.34 0.37 0.40 0.38 0.40 0.31 0.33 0.41 0.40 0.37 0.39 0.40 0.43 0.49 0.52 0.55 0.64 0.67 0.72 0.73 0.75 0.76 0.80 0.87 0.96 1.02 1.12 1.26 1.41 1.47 1.50 1.52 1.59 1.60 1.63 1.63 1.54 1.45 1.49 1.53 1.60 1.56 1.58 1.56 1.52 1.45 1.51
0.34 0.34 0.24 0.35 0.38 0.38 0.37 0.23 0.35 0.39 0.35 0.36 0.39 0.42 0.45 0.54 0.62 0.69 0.75 0.77 0.80 0.79 0.76 0.79 0.83 0.85 0.87 0.89 0.97 1.09 1.20 1.39 1.43 1.46 1.51 1.58 1.62 1.64 1.67 1.67 1.68 1.66 1.58 1.54 1.47 1.44 1.34 1.37 1.41
0.32 0.22 0.25 0.29 0.39 0.36 0.34 0.28 0.34 0.38 0.37 0.36 0.39 0.42 0.47 0.57 0.66 0.73 0.77 0.77 0.75 0.72 0.75 0.78 0.84 0.86 0.90 0.91 0.90 0.93 0.97 1.10 1.26 1.40 1.43 1.46 1.53 1.50 1.52 1.60 1.63 1.61 1.62 1.57 1.54 1.46 1.37 1.30 1.34
0.24 0.26 0.29 0.28 0.34 0.35 0.30 0.28 0.33 0.37 0.35 0.34 0.37 0.41 0.47 0.57 0.62 0.69 0.68 0.69 0.70 0.69 0.67 0.71 0.76 0.82 0.89 0.93 0.91 0.88 0.86 0.93 0.99 1.10 1.24 1.35 1.43 1.35 1.41 1.51 1.65 1.65 1.60 1.59 1.58 1.49 1.35 1.31 1.37
0.36 0.32 0.28 0.31 0.34 0.30 0.28 0.26 0.28 0.32 0.31 0.32 0.36 0.40 0.44 0.48 0.55 0.57 0.58 0.61 0.61 0.60 0.61 0.61 0.64 0.69 0.76 0.80 0.82 0.79 0.78 0.83 0.87 0.92 0.94 1.00 1.14 1.17 1.28 1.42 1.55 1.50 1.60 1.52 1.56 1.55 1.41 1.37 1.46
0.29 0.25 0.24 0.27 0.32 0.28 0.24 0.21 0.25 0.29 0.31 0.32 0.33 0.35 0.37 0.38 0.40 0.44 0.49 0.54 0.59 0.61 0.62 0.62 0.61 0.62 0.65 0.71 0.79 0.86 0.84 0.85 0.89 0.93 0.93 0.92 0.97 1.07 1.18 1.30 1.33 1.45 1.51 1.46 1.45 1.44 1.34 1.33 1.46
0.25 0.23 0.22 0.21 0.24 0.25 0.22 0.17 0.21 0.27 0.28 0.30 0.32 0.32 0.35 0.38 0.41 0.45 0.49 0.52 0.55 0.56 0.59 0.61 0.61 0.59 0.60 0.64 0.73 0.80 0.83 0.83 0.80 0.87 0.89 0.92 0.97 1.00 1.13 1.21 1.21 1.25 1.31 1.28 1.35 1.39 1.33 1.25 1.42
0.18 0.24 0.22 0.19 0.17 0.13 0.23 0.12 0.17 0.23 0.24 0.28 0.31 0.35 0.38 0.40 0.43 0.45 0.45 0.49 0.55 0.59 0.60 0.57 0.57 0.57 0.59 0.60 0.61 0.68 0.72 0.68 0.75 0.83 0.94 0.95 0.97 0.94 1.04 1.14 1.15 1.20 1.27 1.28 1.31 1.41 1.37 1.32 1.30
0.20 0.23 0.20 0.19 0.17 0.16 0.15 0.14 0.15 0.25 0.22 0.24 0.27 0.30 0.32 0.36 0.39 0.40 0.46 0.52 0.57 0.62 0.65 0.70 0.67 0.58 0.58 0.57 0.62 0.61 0.64 0.76 0.79 0.87 0.93 1.00 1.00 0.97 1.04 1.13 1.14 1.16 1.25 1.30 1.34 1.33 1.35 1.38 1.42
0.25 0.21 0.19 0.16 0.13 0.09 0.15 0.15 0.14 0.18 0.20 0.20 0.26 0.29 0.32 0.36 0.40 0.45 0.50 0.52 0.54 0.59 0.62 0.66 0.71 0.75 0.63 0.50 0.50 0.62 0.60 0.70 0.68 0.79 0.89 0.99 1.06 0.99 1.11 1.14 1.11 1.17 1.25 1.30 1.33 1.34 1.36 1.42 1.33
0.22 0.15 0.09 0.07 0.07 0.06 0.15 0.13 0.12 0.18 0.22 0.23 0.26 0.30 0.34 0.38 0.42 0.46 0.47 0.49 0.50 0.51 0.52 0.55 0.59 0.64 0.71 0.62 0.54 0.59 0.66 0.67 0.72 0.76 0.90 1.01 1.05 1.01 1.11 1.15 1.13 1.16 1.29 1.35 1.35 1.34 1.33 1.37 1.19
0.19 0.19 0.11 0.08 0.07 0.09 0.16 0.12 0.14 0.24 0.28 0.31 0.35 0.35 0.37 0.41 0.44 0.43 0.44 0.47 0.48 0.45 0.46 0.47 0.56 0.55 0.72 0.71 0.68 0.73 0.67 0.69 0.79 0.81 0.93 1.04 1.10 1.12 1.17 1.15 1.20 1.25 1.34 1.38 1.43 1.45 1.37 1.32 1.19
0.20 0.15 0.19 0.14 0.13 0.11 0.12 0.14 0.25 0.27 0.29 0.33 0.33 0.34 0.34 0.37 0.41 0.40 0.38 0.39 0.40 0.44 0.47 0.51 0.51 0.54 0.63 0.72 0.67 0.64 0.65 0.68 0.79 0.85 0.98 1.08 1.15 1.17 1.16 1.16 1.20 1.31 1.28 1.29 1.27 1.35 1.33 1.26 1.15
0.18 0.19 0.11 0.14 0.09 0.09 0.11 0.13 0.13 0.24 0.27 0.27 0.26 0.26 0.28 0.34 0.37 0.37 0.36 0.36 0.43 0.46 0.47 0.48 0.48 0.48 0.53 0.59 0.59 0.55 0.55 0.66 0.80 0.87 0.99 1.09 1.16 1.15 1.19 1.19 1.24 1.27 1.24 1.26 1.24 1.29 1.30 1.25 1.23
0.16 0.14 0.17 0.17 0.16 0.10 0.08 0.08 0.20 0.17 0.19 0.21 0.27 0.27 0.30 0.32 0.35 0.36 0.33 0.33 0.38 0.46 0.45 0.45 0.45 0.43 0.42 0.50 0.46 0.45 0.47 0.62 0.77 0.81 0.98 1.09 1.15 1.19 1.22 1.25 1.25 1.26 1.25 1.23 1.21 1.27 1.32 1.27 1.15
0.20 0.17 0.16 0.10 0.09 0.14 0.14 0.09 0.17 0.22 0.26 0.30 0.31 0.33 0.33 0.29 0.32 0.36 0.35 0.33 0.34 0.41 0.45 0.42 0.41 0.40 0.42 0.42 0.41 0.40 0.44 0.58 0.76 0.80 0.85 1.04 1.13 1.21 1.18 1.22 1.22 1.21 1.27 1.32 1.26 1.28 1.31 1.20 1.09

GFSSGP_prec_pwat_204.txt.gz
Precipitable_Water
0.61 0.59 0.58 0.51 0.27 0.33 0.30 0.34 0.45 0.45 0.50 0.57 0.64 0.59 0.61 0.75 0.68 0.56 1.18 1.26 1.31 1.35 1.36 1.49 1.46 1.54 1.50 1.46 1.45 1.45 1.38 1.31 1.23 1.26 1.24 1.19 1.17 1.16 1.15 1.24 1.34 1.42 1.37 1.29 1.25 1.29 1.35 1.40 1.42
0.60 0.57 0.50 0.39 0.25 0.21 0.26 0.38 0.38 0.48 0.51 0.67 0.63 0.58 0.53 0.54 0.86 0.88 0.92 1.14 1.16 1.26 1.37 1.41 1.48 1.50 1.45 1.42 1.37 1.36 1.33 1.28 1.23 1.29 1.28 1.28 1.29 1.22 1.18 1.22 1.32 1.39 1.31 1.24 1.20 1.22 1.29 1.33 1.37
0.60 0.56 0.36 0.29 0.27 0.22 0.26 0.38 0.41 0.47 0.52 0.51 0.54 0.68 0.61 0.57 0.86 0.89 1.04 1.12 1.20 1.23 1.34 1.37 1.41 1.40 1.39 1.38 1.34 1.31 1.30 1.24 1.28 1.37 1.35 1.40 1.35 1.27 1.21 1.21 1.36 1.40 1.33 1.25 1.19 1.21 1.27 1.29 1.32
0.48 0.45 0.36 0.21 0.22 0.30 0.35 0.38 0.41 0.41 0.44 0.54 0.64 0.54 0.78 0.97 0.94 1.07 1.12 1.18 1.21 1.27 1.36 1.36 1.39 1.37 1.36 1.36 1.32 1.29 1.27 1.22 1.34 1.36 1.46 1.52 1.42 1.35 1.29 1.25 1.33 1.31 1.31 1.22 1.16 1.16 1.22 1.27 1.29
0.51 0.39 0.22 0.21 0.24 0.30 0.38 0.41 0.42 0.38 0.39 0.46 0.56 0.48 0.59 0.90 1.08 1.07 1.09 1.16 1.09 1.12 1.22 1.28 1.35 1.36 1.36 1.36 1.34 1.31 1.24 1.18 1.38 1.31 1.44 1.39 1.41 1.41 1.37 1.32 1.27 1.36 1.40 1.31 1.20 1.17 1.19 1.25 1.30
0.35 0.35 0.22 0.19 0.24 0.31 0.35 0.39 0.38 0.38 0.39 0.39 0.48 0.55 0.60 0.95 0.99 1.06 1.17 1.11 1.17 1.13 1.25 1.31 1.35 1.35 1.36 1.37 1.34 1.30 1.21 1.18 1.50 1.41 1.32 1.42 1.39 1.40 1.44 1.37 1.32 1.34 1.41 1.37 1.32 1.22 1.23 1.27 1.33
0.34 0.30 0.23 0.26 0.26 0.29 0.34 0.41 0.37 0.37 0.38 0.38 0.45 0.44 0.65 0.82 1.09 1.10 1.13 1.17 1.21 1.27 1.28 1.30 1.33 1.35 1.38 1.42 1.40 1.38 1.32 1.23 1.33 1.41 1.38 1.43 1.43 1.32 1.49 1.53 1.41 1.33 1.38 1.41 1.40 1.29 1.24 1.25 1.35
0.42 0.32 0.25 0.28 0.27 0.28 0.38 0.40 0.43 0.42 0.40 0.47 0.59 0.43 0.44 0.75 1.07 1.06 1.02 1.10 1.18 1.25 1.29 1.31 1.38 1.43 1.46 1.45 1.46 1.49 1.48 1.34 1.30 1.36 1.34 1.43 1.38 1.29 1.36 1.47 1.48 1.43 1.37 1.39 1.41 1.40 1.35 1.40 1.41
0.44 0.26 0.22 0.26 0.28 0.32 0.40 0.38 0.44 0.48 0.43 0.44 0.45 0.44 0.57 0.68 0.99 0.97 0.92 0.95 1.06 1.17 1.24 1.34 1.36 1.41 1.46 1.52 1.53 1.64 1.58 1.50 1.41 1.44 1.41 1.48 1.44 1.33 1.27 1.34 1.40 1.47 1.43 1.41 1.41 1.41 1.38 1.43 1.49
0.36 0.26 0.26 0.36 0.36 0.35 0.40 0.41 0.42 0.41 0.40 0.40 0.40 0.47 0.51 0.62 0.80 0.80 0.81 0.85 0.93 1.04 1.16 1.28 1.34 1.36 1.41 1.48 1.49 1.57 1.68 1.73 1.58 1.48 1.41 1.42 1.42 1.37 1.30 1.28 1.35 1.43 1.45 1.46 1.48 1.49 1.47 1.46 1.46
0.40 0.30 0.37 0.40 0.43 0.44 0.41 0.40 0.43 0.36 0.29 0.35 0.34 0.39 0.45 0.49 0.50 0.50 0.54 0.61 0.72 0.85 0.98 1.16 1.28 1.38 1.43 1.43 1.49 1.50 1.57 1.63 1.72 1.65 1.45 1.44 1.44 1.41 1.38 1.33 1.33 1.37 1.39 1.38 1.42 1.45 1.47 1.44 1.45
0.34 0.40 0.41 0.42 0.44 0.41 0.37 0.40 0.38 0.40 0.39 0.46 0.47 0.49 0.48 0.46 0.46 0.47 0.49 0.53 0.60 0.67 0.77 0.91 1.11 1.28 1.37 1.40 1.43 1.50 1.50 1.53 1.61 1.64 1.57 1.55 1.53 1.45 1.39 1.34 1.30 1.29 1.32 1.30 1.36 1.42 1.50 1.55 1.50
0.36 0.38 0.42 0.43 0.42 0.40 0.41 0.37 0.39 0.40 0.45 0.48 0.47 0.47 0.46 0.46 0.45 0.49 0.56 0.64 0.68 0.67 0.73 0.78 0.87 0.98 1.12 1.20 1.25 1.29 1.40 1.50 1.57 1.61 1.65 1.63 1.56 1.56 1.53 1.45 1.37 1.31 1.30 1.30 1.33 1.41 1.48 1.61 1.54
0.41 0.40 0.39 0.40 0.39 0.41 0.38 0.38 0.40 0.41 0.43 0.40 0.42 0.43 0.44 0.45 0.45 0.55 0.63 0.68 0.72 0.76 0.77 0.83 0.86 0.92 0.97 1.03 1.11 1.19 1.24 1.30 1.37 1.52 1.61 1.65 1.61 1.54 1.54 1.52 1.36 1.27 1.29 1.26 1.41 1.45 1.53 1.57 1.60
0.39 0.31 0.35 0.36 0.38 0.38 0.41 0.31 0.33 0.41 0.40 0.36 0.35 0.40 0.48 0.56 0.60 0.63 0.72 0.73 0.76 0.78 0.80 0.82 0.85 0.90 0.92 0.95 0.98 1.02 1.15 1.24 1.25 1.33 1.43 1.52 1.55 1.55 1.60 1.54 1.45 1.37 1.46 1.42 1.52 1.51 1.59 1.57 1.60
0.33 0.33 0.24 0.36 0.39 0.39 0.37 0.24 0.35 0.41 0.38 0.36 0.38 0.42 0.51 0.59 0.65 0.70 0.72 0.69 0.69 0.72 0.74 0.79 0.83 0.86 0.89 0.90 0.93 0.94 0.97 1.05 1.20 1.29 1.30 1.35 1.47 1.51 1.55 1.55 1.58 1.63 1.61 1.66 1.56 1.48 1.47 1.46 1.45
0.32 0.23 0.26 0.29 0.39 0.37 0.34 0.27 0.34 0.39 0.36 0.33 0.35 0.40 0.49 0.54 0.56 0.57 0.59 0.60 0.60 0.61 0.62 0.66 0.71 0.73 0.79 0.86 0.91 0.94 0.94 0.93 0.97 1.09 1.20 1.29 1.36 1.45 1.47 1.56 1.50 1.53 1.61 1.61 1.54 1.48 1.46 1.41 1.41
0.23 0.26 0.29 0.28 0.33 0.31 0.27 0.26 0.31 0.33 0.32 0.32 0.37 0.42 0.43 0.42 0.42 0.47 0.52 0.55 0.58 0.60 0.61 0.61 0.63 0.67 0.69 0.73 0.83 0.91 0.92 0.91 0.92 0.91 0.96 1.08 1.17 1.30 1.47 1.48 1.49 1.46 1.43 1.50 1.58 1.54 1.59 1.54 1.50
0.32 0.29 0.24 0.27 0.31 0.26 0.25 0.23 0.24 0.27 0.30 0.35 0.37 0.35 0.34 0.36 0.40 0.45 0.50 0.53 0.55 0.57 0.58 0.61 0.60 0.62 0.65 0.66 0.68 0.77 0.81 0.86 0.87 0.87 0.90 0.94 1.01 1.07 1.19 1.32 1.39 1.35 1.29 1.39 1.56 1.51 1.53 1.47 1.52
0.25 0.22 0.20 0.23 0.26 0.23 0.20 0.18 0.24 0.28 0.28 0.30 0.28 0.28 0.32 0.36 0.40 0.45 0.49 0.53 0.56 0.58 0.59 0.56 0.55 0.56 0.56 0.61 0.65 0.75 0.76 0.88 0.88 0.87 0.85 0.90 0.93 0.97 1.00 1.06 1.17 1.19 1.24 1.33 1.38 1.38 1.38 1.46 1.48
0.20 0.17 0.17 0.17 0.20 0.21 0.19 0.14 0.20 0.25 0.25 0.29 0.32 0.34 0.37 0.39 0.40 0.42 0.44 0.46 0.49 0.51 0.53 0.56 0.61 0.61 0.57 0.55 0.57 0.68 0.72 0.76 0.80 0.84 0.83 0.86 0.92 0.94 0.96 0.99 1.07 1.14 1.25 1.20 1.30 1.32 1.31 1.25 1.40
0.15 0.21 0.20 0.17 0.15 0.11 0.17 0.08 0.14 0.19 0.23 0.28 0.30 0.32 0.33 0.32 0.34 0.37 0.39 0.40 0.42 0.45 0.51 0.55 0.58 0.61 0.67 0.63 0.55 0.50 0.60 0.64 0.75 0.81 0.86 0.88 0.96 0.97 0.98 0.98 1.02 1.09 1.22 1.15 1.23 1.27 1.28 1.26 1.18
0.18 0.22 0.19 0.16 0.12 0.12 0.13 0.12 0.13 0.21 0.20 0.22 0.24 0.25 0.28 0.32 0.35 0.37 0.40 0.42 0.47 0.51 0.53 0.55 0.55 0.59 0.62 0.65 0.66 0.59 0.59 0.63 0.75 0.64 0.79 0.85 0.95 1.01 1.01 1.02 1.02 1.08 1.20 1.18 1.20 1.26 1.28 1.31 1.27
0.24 0.19 0.13 0.13 0.12 0.07 0.13 0.13 0.11 0.15 0.17 0.17 0.23 0.26 0.29 0.33 0.37 0.39 0.42 0.44 0.45 0.47 0.47 0.46 0.47 0.48 0.56 0.59 0.65 0.63 0.62 0.55 0.61 0.62 0.76 0.79 0.88 0.96 1.05 1.06 1.05 1.15 1.16 1.16 1.19 1.27 1.30 1.29 1.26
0.18 0.12 0.07 0.05 0.05 0.05 0.14 0.12 0.10 0.15 0.20 0.21 0.23 0.27 0.32 0.36 0.36 0.37 0.36 0.38 0.38 0.39 0.46 0.49 0.48 0.48 0.51 0.60 0.65 0.70 0.69 0.65 0.60 0.69 0.81 0.81 0.80 0.89 0.98 1.08 1.09 1.17 1.20 1.21 1.25 1.25 1.26 1.27 1.31
0.17 0.17 0.09 0.06 0.05 0.06 0.11 0.08 0.10 0.20 0.25 0.26 0.30 0.33 0.33 0.34 0.36 0.35 0.36 0.36 0.39 0.41 0.42 0.44 0.45 0.45 0.48 0.49 0.57 0.68 0.69 0.68 0.70 0.72 0.82 0.82 0.84 0.94 1.04 1.11 1.18 1.24 1.19 1.19 1.21 1.25 1.24 1.27 1.29
0.18 0.13 0.18 0.12 0.11 0.09 0.10 0.13 0.18 0.23 0.21 0.28 0.31 0.31 0.28 0.28 0.30 0.32 0.35 0.35 0.36 0.39 0.42 0.44 0.42 0.41 0.42 0.43 0.47 0.59 0.58 0.59 0.59 0.71 0.80 0.79 0.89 1.02 1.08 1.18 1.20 1.21 1.20 1.25 1.26 1.22 1.22 1.25 1.22
0.19 0.19 0.10 0.12 0.07 0.08 0.09 0.09 0.08 0.15 0.17 0.19 0.23 0.27 0.29 0.31 0.32 0.34 0.35 0.35 0.35 0.38 0.42 0.45 0.40 0.41 0.41 0.44 0.43 0.52 0.52 0.55 0.52 0.62 0.73 0.77 0.87 1.10 1.14 1.19 1.19 1.20 1.25 1.30 1.28 1.23 1.22 1.22 1.23
0.15 0.14 0.17 0.16 0.14 0.09 0.07 0.07 0.13 0.11 0.16 0.21 0.22 0.26 0.30 0.32 0.35 0.34 0.35 0.37 0.36 0.37 0.40 0.42 0.40 0.41 0.40 0.43 0.42 0.45 0.49 0.45 0.49 0.60 0.70 0.76 0.91 1.10 1.15 1.21 1.21 1.20 1.25 1.26 1.21 1.21 1.21 1.21 1.23
0.21 0.18 0.17 0.13 0.11 0.13 0.13 0.07 0.13 0.18 0.23 0.21 0.18 0.23 0.31 0.35 0.37 0.33 0.34 0.37 0.36 0.35 0.39 0.39 0.39 0.40 0.41 0.44 0.42 0.46 0.45 0.43 0.46 0.59 0.75 0.79 0.93 1.13 1.23 1.28 1.25 1.29 1.25 1.24 1.21 1.20 1.24 1.23 1.26

GFSSGP_prec_pwat_207.txt.gz
Precipitable_Water
0.59 0.58 0.55 0.48 0.26 0.32 0.28 0.33 0.46 0.47 0.48 0.59 0.64 0.59 0.59 0.72 0.66 0.55 1.14 1.23 1.25 1.26 1.30 1.37 1.35 1.39 1.46 1.47 1.37 1.52 1.40 1.31 1.23 1.26 1.27 1.24 1.22 1.21 1.23 1.31 1.35 1.39 1.30 1.24 1.25 1.29 1.35 1.37 1.37
0.59 0.56 0.51 0.38 0.22 0.19 0.25 0.37 0.37 0.43 0.49 0.64 0.63 0.59 0.53 0.49 0.82 0.84 0.92 1.17 1.23 1.22 1.29 1.39 1.36 1.42 1.45 1.40 1.39 1.44 1.34 1.29 1.23 1.27 1.29 1.29 1.28 1.24 1.21 1.31 1.35 1.37 1.28 1.22 1.22 1.28 1.33 1.36 1.34
0.60 0.55 0.34 0.27 0.25 0.20 0.24 0.37 0.40 0.44 0.50 0.51 0.54 0.69 0.64 0.57 0.84 0.88 1.04 1.15 1.22 1.19 1.30 1.38 1.42 1.46 1.43 1.42 1.35 1.35 1.31 1.28 1.25 1.33 1.33 1.35 1.35 1.27 1.22 1.25 1.39 1.38 1.27 1.21 1.21 1.25 1.29 1.31 1.31
0.47 0.43 0.33 0.21 0.22 0.29 0.34 0.39 0.42 0.42 0.45 0.55 0.59 0.51 0.76 0.96 0.95 1.06 1.14 1.20 1.19 1.22 1.30 1.36 1.43 1.41 1.38 1.38 1.36 1.35 1.33 1.28 1.23 1.31 1.42 1.47 1.42 1.36 1.29 1.27 1.40 1.36 1.31 1.22 1.18 1.18 1.24 1.26 1.31
0.50 0.37 0.21 0.19 0.23 0.30 0.38 0.42 0.42 0.39 0.42 0.45 0.56 0.45 0.58 0.90 1.10 1.10 1.12 1.18 1.13 1.18 1.26 1.32 1.37 1.37 1.37 1.38 1.37 1.36 1.32 1.25 1.20 1.30 1.43 1.50 1.58 1.42 1.35 1.31 1.31 1.34 1.41 1.32 1.24 1.21 1.23 1.26 1.31
0.34 0.34 0.20 0.17 0.23 0.30 0.37 0.42 0.40 0.38 0.40 0.41 0.45 0.53 0.61 1.00 1.02 1.07 1.17 1.18 1.24 1.19 1.25 1.31 1.37 1.39 1.37 1.38 1.42 1.40 1.36 1.25 1.22 1.42 1.38 1.43 1.35 1.45 1.40 1.40 1.36 1.35 1.47 1.43 1.35 1.27 1.22 1.26 1.34
0.32 0.29 0.22 0.25 0.25 0.28 0.35 0.42 0.38 0.38 0.38 0.39 0.47 0.42 0.62 0.84 1.08 1.15 1.17 1.19 1.22 1.26 1.28 1.31 1.36 1.40 1.41 1.42 1.48 1.46 1.41 1.32 1.25 1.45 1.45 1.43 1.44 1.58 1.39 1.51 1.46 1.38 1.40 1.41 1.41 1.35 1.26 1.27 1.37
0.40 0.31 0.25 0.28 0.26 0.28 0.38 0.41 0.45 0.42 0.40 0.49 0.54 0.42 0.40 0.61 0.93 1.09 1.09 1.11 1.17 1.24 1.30 1.32 1.39 1.44 1.48 1.49 1.49 1.50 1.53 1.51 1.44 1.39 1.43 1.41 1.42 1.49 1.44 1.46 1.53 1.50 1.43 1.39 1.43 1.46 1.39 1.31 1.38
0.41 0.25 0.22 0.25 0.28 0.32 0.40 0.38 0.44 0.50 0.44 0.46 0.47 0.46 0.53 0.64 0.90 1.01 1.02 0.98 1.06 1.16 1.25 1.33 1.35 1.39 1.44 1.48 1.50 1.52 1.58 1.62 1.62 1.50 1.50 1.48 1.45 1.50 1.45 1.34 1.42 1.48 1.52 1.50 1.44 1.45 1.42 1.42 1.42
0.36 0.25 0.26 0.36 0.37 0.36 0.41 0.42 0.44 0.43 0.41 0.39 0.39 0.44 0.50 0.51 0.58 0.79 0.85 0.88 0.97 1.06 1.19 1.33 1.39 1.43 1.46 1.48 1.57 1.53 1.55 1.61 1.68 1.68 1.60 1.58 1.48 1.45 1.45 1.39 1.34 1.38 1.42 1.51 1.51 1.46 1.42 1.38 1.41
0.40 0.30 0.38 0.40 0.44 0.44 0.41 0.40 0.45 0.38 0.34 0.40 0.39 0.43 0.47 0.49 0.50 0.49 0.51 0.55 0.65 0.81 0.93 1.03 1.16 1.41 1.47 1.48 1.47 1.50 1.55 1.58 1.62 1.68 1.71 1.62 1.55 1.49 1.51 1.46 1.41 1.35 1.39 1.42 1.41 1.43 1.45 1.40 1.41
0.34 0.40 0.41 0.43 0.45 0.42 0.38 0.41 0.38 0.42 0.43 0.47 0.48 0.49 0.49 0.47 0.48 0.49 0.52 0.58 0.63 0.69 0.75 0.83 0.94 1.07 1.29 1.44 1.39 1.42 1.41 1.45 1.48 1.59 1.63 1.66 1.61 1.50 1.49 1.47 1.45 1.42 1.40 1.36 1.38 1.39 1.44 1.46 1.46
0.36 0.39 0.42 0.43 0.43 0.42 0.43 0.39 0.41 0.42 0.44 0.45 0.44 0.46 0.49 0.49 0.52 0.60 0.63 0.67 0.69 0.68 0.75 0.80 0.86 0.90 0.96 1.09 1.27 1.27 1.22 1.27 1.36 1.46 1.54 1.66 1.61 1.58 1.57 1.53 1.54 1.52 1.42 1.38 1.33 1.33 1.37 1.44 1.47
0.39 0.37 0.37 0.39 0.39 0.41 0.38 0.39 0.42 0.41 0.45 0.43 0.43 0.48 0.52 0.53 0.57 0.61 0.63 0.64 0.68 0.72 0.73 0.78 0.81 0.86 0.93 0.94 1.00 1.07 1.16 1.23 1.22 1.31 1.42 1.50 1.54 1.57 1.64 1.58 1.53 1.55 1.55 1.41 1.32 1.26 1.34 1.45 1.54
0.39 0.31 0.35 0.37 0.38 0.36 0.41 0.33 0.35 0.42 0.43 0.40 0.43 0.50 0.52 0.55 0.59 0.56 0.59 0.59 0.62 0.66 0.70 0.72 0.73 0.78 0.81 0.87 0.93 0.97 1.00 1.05 1.15 1.23 1.32 1.36 1.44 1.48 1.55 1.59 1.55 1.60 1.63 1.49 1.38 1.37 1.37 1.43 1.55
0.32 0.33 0.24 0.36 0.38 0.39 0.38 0.26 0.37 0.42 0.40 0.38 0.40 0.46 0.45 0.45 0.47 0.51 0.54 0.57 0.59 0.60 0.62 0.65 0.70 0.71 0.75 0.78 0.83 0.88 0.95 0.95 0.97 1.04 1.22 1.30 1.38 1.39 1.42 1.42 1.49 1.61 1.66 1.60 1.50 1.45 1.44 1.50 1.53
0.30 0.21 0.25 0.28 0.39 0.36 0.32 0.26 0.32 0.36 0.34 0.33 0.39 0.40 0.39 0.41 0.44 0.47 0.49 0.51 0.54 0.57 0.59 0.60 0.62 0.63 0.67 0.72 0.75 0.83 0.92 0.93 0.95 1.00 1.02 1.06 1.17 1.34 1.33 1.35 1.43 1.56 1.56 1.56 1.59 1.61 1.57 1.49 1.49
0.22 0.24 0.26 0.24 0.29 0.27 0.23 0.23 0.27 0.28 0.29 0.32 0.33 0.36 0.38 0.38 0.38 0.43 0.46 0.49 0.52 0.53 0.54 0.54 0.56 0.58 0.59 0.62 0.65 0.73 0.79 0.84 0.96 0.97 0.98 1.00 1.02 1.08 1.19 1.24 1.30 1.46 1.50 1.49 1.49 1.46 1.57 1.51 1.46
0.26 0.22 0.19 0.21 0.24 0.20 0.19 0.18 0.19 0.25 0.32 0.31 0.31 0.33 0.31 0.33 0.40 0.43 0.48 0.51 0.51 0.52 0.53 0.54 0.56 0.57 0.56 0.55 0.53 0.61 0.65 0.71 0.81 0.91 0.97 0.95 0.99 0.99 1.01 1.05 1.16 1.32 1.45 1.41 1.41 1.41 1.41 1.44 1.53
0.19 0.17 0.16 0.18 0.21 0.17 0.15 0.14 0.19 0.22 0.26 0.27 0.27 0.28 0.32 0.35 0.39 0.42 0.43 0.44 0.44 0.44 0.48 0.49 0.51 0.52 0.55 0.58 0.54 0.53 0.58 0.66 0.70 0.80 0.84 0.94 0.98 1.00 0.97 0.98 1.02 1.11 1.24 1.36 1.36 1.34 1.29 1.31 1.46
0.17 0.15 0.15 0.15 0.17 0.17 0.16 0.10 0.16 0.22 0.26 0.27 0.31 0.32 0.32 0.31 0.32 0.34 0.36 0.37 0.39 0.40 0.44 0.46 0.49 0.52 0.55 0.58 0.59 0.59 0.62 0.68 0.65 0.68 0.72 0.78 0.91 0.97 1.01 1.00 1.01 1.02 1.09 1.16 1.26 1.28 1.26 1.18 1.41
0.13 0.19 0.17 0.15 0.12 0.07 0.14 0.06 0.13 0.19 0.21 0.26 0.28 0.27 0.28 0.30 0.32 0.34 0.36 0.37 0.38 0.41 0.46 0.46 0.46 0.45 0.46 0.51 0.53 0.52 0.50 0.56 0.66 0.68 0.71 0.76 0.80 0.85 1.00 1.03 1.04 1.04 1.05 1.08 1.18 1.24 1.27 1.28 1.17
0.15 0.20 0.16 0.12 0.10 0.10 0.12 0.10 0.11 0.19 0.19 0.21 0.22 0.25 0.27 0.30 0.32 0.34 0.35 0.37 0.37 0.39 0.40 0.43 0.46 0.50 0.50 0.49 0.51 0.53 0.54 0.60 0.68 0.69 0.65 0.75 0.80 0.80 0.97 1.03 1.04 1.05 1.05 1.08 1.16 1.22 1.20 1.26 1.23
0.21 0.16 0.11 0.12 0.11 0.07 0.12 0.11 0.09 0.12 0.16 0.16 0.22 0.25 0.29 0.31 0.33 0.35 0.38 0.37 0.35 0.39 0.40 0.42 0.42 0.43 0.46 0.46 0.47 0.49 0.53 0.56 0.60 0.64 0.60 0.70 0.78 0.78 0.80 0.97 1.02 1.06 1.03 1.07 1.14 1.22 1.20 1.23 1.27
0.17 0.12 0.06 0.04 0.05 0.05 0.13 0.10 0.08 0.15 0.19 0.20 0.21 0.26 0.31 0.34 0.33 0.34 0.33 0.34 0.33 0.35 0.38 0.38 0.42 0.39 0.41 0.42 0.41 0.43 0.45 0.51 0.57 0.58 0.60 0.66 0.79 0.77 0.76 0.92 1.00 1.08 1.06 1.10 1.18 1.18 1.18 1.22 1.25
0.16 0.15 0.08 0.05 0.04 0.05 0.10 0.06 0.08 0.20 0.22 0.25 0.25 0.26 0.28 0.28 0.30 0.30 0.33 0.35 0.34 0.36 0.37 0.38 0.38 0.39 0.42 0.42 0.41 0.42 0.44 0.46 0.54 0.60 0.58 0.63 0.77 0.80 0.81 0.94 1.05 1.09 1.08 1.12 1.19 1.18 1.18 1.24 1.30
0.16 0.12 0.17 0.11 0.11 0.09 0.09 0.12 0.14 0.16 0.16 0.20 0.16 0.23 0.22 0.23 0.29 0.31 0.34 0.36 0.36 0.36 0.37 0.38 0.40 0.40 0.42 0.42 0.42 0.41 0.43 0.44 0.54 0.51 0.62 0.70 0.81 0.85 0.85 0.90 1.04 1.11 1.12 1.15 1.21 1.19 1.17 1.21 1.28
0.16 0.19 0.10 0.12 0.06 0.06 0.08 0.08 0.07 0.10 0.12 0.14 0.20 0.21 0.17 0.20 0.27 0.31 0.36 0.37 0.36 0.38 0.38 0.40 0.42 0.40 0.42 0.42 0.41 0.41 0.42 0.46 0.57 0.57 0.60 0.64 0.78 0.86 0.85 0.91 1.10 1.10 1.21 1.20 1.22 1.19 1.23 1.23 1.27
0.14 0.14 0.17 0.15 0.14 0.09 0.07 0.07 0.12 0.12 0.14 0.18 0.20 0.18 0.18 0.18 0.23 0.28 0.34 0.34 0.35 0.38 0.37 0.37 0.40 0.41 0.41 0.42 0.41 0.43 0.43 0.45 0.57 0.53 0.57 0.66 0.80 0.83 0.83 1.07 1.20 1.24 1.24 1.24 1.22 1.24 1.24 1.23 1.22
0.19 0.19 0.18 0.14 0.11 0.13 0.13 0.09 0.15 0.16 0.19 0.22 0.20 0.19 0.19 0.20 0.23 0.25 0.27 0.31 0.35 0.36 0.36 0.36 0.37 0.39 0.42 0.43 0.42 0.43 0.43 0.46 0.53 0.46 0.52 0.67 0.80 0.86 0.98 1.20 1.24 1.26 1.23 1.24 1.28 1.25 1.25 1.19 1.19

GFSSGP_prec_pwat_210.txt.gz
Precipitable_Water
0.60 0.57 0.55 0.50 0.33 0.34 0.29 0.35 0.47 0.49 0.48 0.66 0.63 0.60 0.58 0.67 0.64 0.57 1.09 1.22 1.27 1.26 1.28 1.36 1.36 1.37 1.46 1.49 1.44 1.58 1.44 1.32 1.23 1.29 1.29 1.26 1.24 1.23 1.32 1.39 1.35 1.33 1.25 1.21 1.25 1.31 1.34 1.37 1.29
0.59 0.55 0.53 0.38 0.27 0.22 0.29 0.37 0.39 0.42 0.48 0.61 0.63 0.60 0.60 0.59 0.76 0.81 0.94 1.16 1.25 1.25 1.28 1.40 1.37 1.34 1.46 1.49 1.39 1.50 1.39 1.29 1.22 1.26 1.29 1.27 1.28 1.25 1.28 1.38 1.37 1.38 1.27 1.22 1.24 1.28 1.30 1.32 1.26
0.59 0.53 0.38 0.30 0.25 0.23 0.29 0.39 0.41 0.44 0.50 0.51 0.54 0.67 0.65 0.68 0.89 0.94 1.08 1.22 1.29 1.28 1.33 1.45 1.41 1.41 1.47 1.44 1.42 1.43 1.34 1.26 1.22 1.28 1.31 1.31 1.33 1.29 1.24 1.28 1.41 1.39 1.26 1.20 1.20 1.24 1.27 1.28 1.25
0.49 0.46 0.33 0.25 0.26 0.30 0.37 0.40 0.43 0.43 0.46 0.58 0.59 0.57 0.78 0.99 1.00 1.09 1.18 1.25 1.25 1.28 1.33 1.41 1.40 1.47 1.46 1.41 1.37 1.34 1.34 1.30 1.22 1.29 1.35 1.38 1.43 1.35 1.28 1.26 1.46 1.42 1.29 1.23 1.17 1.20 1.25 1.27 1.30
0.51 0.38 0.24 0.22 0.25 0.32 0.39 0.42 0.44 0.41 0.43 0.44 0.55 0.53 0.67 0.95 1.11 1.15 1.18 1.24 1.21 1.26 1.34 1.39 1.41 1.46 1.42 1.39 1.38 1.37 1.38 1.34 1.25 1.24 1.38 1.56 1.65 1.65 1.40 1.32 1.38 1.40 1.35 1.33 1.24 1.21 1.22 1.25 1.30
0.39 0.34 0.22 0.20 0.26 0.32 0.39 0.44 0.43 0.41 0.41 0.41 0.41 0.48 0.71 1.01 1.09 1.15 1.23 1.25 1.30 1.28 1.34 1.40 1.42 1.47 1.44 1.40 1.41 1.41 1.40 1.38 1.30 1.22 1.36 1.41 1.49 1.48 1.48 1.41 1.38 1.39 1.47 1.44 1.34 1.27 1.23 1.25 1.29
0.35 0.30 0.24 0.25 0.27 0.31 0.36 0.44 0.40 0.40 0.40 0.41 0.51 0.45 0.64 0.81 0.98 1.22 1.26 1.27 1.29 1.31 1.32 1.36 1.40 1.42 1.41 1.43 1.45 1.48 1.49 1.47 1.34 1.25 1.44 1.47 1.48 1.48 1.54 1.54 1.49 1.51 1.46 1.51 1.44 1.38 1.30 1.31 1.37
0.40 0.33 0.26 0.29 0.28 0.31 0.39 0.42 0.46 0.43 0.42 0.50 0.49 0.43 0.43 0.59 0.84 1.11 1.16 1.18 1.21 1.29 1.37 1.40 1.46 1.50 1.51 1.53 1.51 1.50 1.53 1.55 1.54 1.44 1.44 1.51 1.48 1.47 1.52 1.54 1.52 1.54 1.56 1.53 1.49 1.48 1.41 1.33 1.32
0.40 0.27 0.24 0.28 0.30 0.34 0.43 0.41 0.47 0.50 0.46 0.47 0.47 0.47 0.53 0.57 0.78 1.03 1.08 1.12 1.14 1.23 1.33 1.42 1.45 1.50 1.52 1.53 1.56 1.54 1.51 1.55 1.61 1.60 1.56 1.51 1.53 1.50 1.52 1.53 1.47 1.44 1.49 1.53 1.54 1.52 1.49 1.45 1.40
0.38 0.28 0.29 0.38 0.38 0.39 0.43 0.43 0.45 0.44 0.43 0.43 0.44 0.48 0.51 0.53 0.51 0.50 0.68 0.81 0.92 0.98 1.07 1.14 1.27 1.39 1.51 1.53 1.51 1.52 1.63 1.60 1.61 1.68 1.73 1.70 1.61 1.58 1.54 1.56 1.57 1.44 1.44 1.46 1.50 1.56 1.50 1.46 1.43
0.40 0.32 0.39 0.41 0.46 0.45 0.42 0.41 0.46 0.42 0.39 0.40 0.40 0.45 0.49 0.50 0.50 0.50 0.57 0.65 0.69 0.80 0.90 0.99 1.06 1.15 1.32 1.47 1.52 1.49 1.58 1.48 1.52 1.58 1.66 1.71 1.71 1.67 1.62 1.52 1.55 1.52 1.46 1.40 1.44 1.48 1.50 1.46 1.42
0.36 0.40 0.42 0.44 0.47 0.43 0.39 0.43 0.40 0.42 0.40 0.45 0.47 0.51 0.53 0.51 0.57 0.62 0.64 0.68 0.70 0.72 0.77 0.84 0.89 0.95 1.04 1.24 1.40 1.46 1.41 1.44 1.47 1.50 1.51 1.54 1.63 1.68 1.68 1.60 1.54 1.53 1.46 1.39 1.42 1.46 1.49 1.49 1.48
0.37 0.39 0.41 0.43 0.43 0.43 0.45 0.42 0.43 0.41 0.45 0.48 0.54 0.54 0.53 0.54 0.58 0.61 0.63 0.65 0.67 0.66 0.71 0.75 0.81 0.85 0.93 0.98 1.08 1.19 1.25 1.26 1.28 1.34 1.42 1.48 1.47 1.49 1.65 1.70 1.69 1.61 1.57 1.52 1.47 1.45 1.41 1.37 1.38
0.38 0.38 0.38 0.41 0.40 0.41 0.39 0.41 0.44 0.43 0.46 0.47 0.53 0.53 0.54 0.54 0.54 0.54 0.54 0.54 0.58 0.62 0.64 0.69 0.73 0.77 0.83 0.86 0.92 1.00 1.08 1.12 1.17 1.22 1.27 1.42 1.43 1.47 1.50 1.53 1.62 1.66 1.66 1.62 1.60 1.47 1.44 1.39 1.37
0.39 0.33 0.37 0.38 0.40 0.37 0.41 0.36 0.38 0.44 0.44 0.42 0.50 0.49 0.48 0.47 0.47 0.45 0.49 0.51 0.54 0.56 0.58 0.62 0.64 0.68 0.72 0.76 0.81 0.88 0.95 1.02 1.06 1.14 1.21 1.28 1.35 1.39 1.42 1.42 1.48 1.53 1.68 1.70 1.66 1.58 1.47 1.41 1.40
0.32 0.34 0.24 0.34 0.35 0.37 0.34 0.24 0.37 0.39 0.36 0.33 0.40 0.37 0.37 0.36 0.37 0.41 0.46 0.49 0.52 0.54 0.56 0.59 0.62 0.63 0.65 0.66 0.69 0.75 0.86 0.96 1.00 1.01 1.05 1.10 1.17 1.26 1.32 1.32 1.36 1.45 1.50 1.60 1.61 1.55 1.40 1.43 1.41
0.29 0.21 0.24 0.25 0.34 0.28 0.22 0.17 0.24 0.30 0.27 0.28 0.32 0.30 0.33 0.37 0.43 0.47 0.48 0.48 0.49 0.51 0.53 0.54 0.57 0.59 0.61 0.62 0.62 0.66 0.74 0.81 0.89 1.00 0.99 1.01 1.02 1.08 1.14 1.21 1.27 1.39 1.46 1.47 1.53 1.54 1.45 1.45 1.43
0.18 0.17 0.18 0.19 0.24 0.23 0.19 0.19 0.23 0.27 0.27 0.26 0.30 0.34 0.36 0.37 0.39 0.43 0.46 0.48 0.48 0.48 0.49 0.49 0.51 0.53 0.56 0.61 0.63 0.60 0.61 0.69 0.77 0.84 0.93 0.97 0.97 1.02 1.03 1.05 1.15 1.27 1.32 1.40 1.50 1.51 1.49 1.46 1.47
0.21 0.17 0.16 0.18 0.20 0.18 0.14 0.15 0.16 0.24 0.27 0.28 0.29 0.29 0.32 0.34 0.37 0.40 0.40 0.41 0.41 0.42 0.44 0.46 0.46 0.48 0.49 0.49 0.50 0.52 0.53 0.58 0.65 0.69 0.79 0.81 0.91 1.00 1.01 1.01 1.03 1.10 1.19 1.26 1.36 1.44 1.42 1.37 1.49
0.16 0.14 0.14 0.17 0.19 0.16 0.14 0.13 0.18 0.21 0.23 0.27 0.29 0.30 0.29 0.30 0.31 0.34 0.35 0.36 0.38 0.39 0.41 0.41 0.41 0.43 0.45 0.47 0.48 0.49 0.51 0.54 0.62 0.72 0.77 0.73 0.79 0.88 0.97 1.00 0.99 1.02 1.04 1.11 1.24 1.41 1.37 1.33 1.41
0.17 0.14 0.14 0.13 0.15 0.14 0.13 0.08 0.16 0.21 0.26 0.30 0.33 0.31 0.31 0.31 0.31 0.33 0.35 0.36 0.36 0.35 0.36 0.37 0.40 0.42 0.46 0.50 0.50 0.50 0.51 0.51 0.53 0.61 0.70 0.79 0.79 0.82 0.92 0.95 1.00 1.01 1.04 1.00 1.12 1.28 1.38 1.23 1.25
0.12 0.18 0.15 0.13 0.10 0.07 0.13 0.05 0.13 0.19 0.21 0.26 0.27 0.28 0.30 0.31 0.34 0.33 0.31 0.31 0.32 0.34 0.39 0.39 0.41 0.42 0.44 0.47 0.45 0.45 0.45 0.44 0.52 0.60 0.66 0.71 0.80 0.83 0.90 0.97 1.02 1.08 1.06 0.99 1.00 1.13 1.24 1.38 1.12
0.15 0.17 0.14 0.12 0.10 0.10 0.12 0.10 0.12 0.19 0.22 0.22 0.25 0.27 0.27 0.31 0.32 0.30 0.31 0.35 0.36 0.38 0.39 0.39 0.41 0.42 0.40 0.42 0.43 0.41 0.40 0.43 0.46 0.51 0.56 0.60 0.71 0.80 0.86 0.91 0.98 1.00 1.01 1.00 1.02 1.06 1.11 1.34 1.21
0.19 0.15 0.11 0.12 0.11 0.09 0.12 0.09 0.06 0.13 0.19 0.21 0.22 0.23 0.25 0.27 0.29 0.29 0.30 0.33 0.35 0.37 0.40 0.40 0.40 0.38 0.39 0.42 0.44 0.43 0.41 0.41 0.41 0.44 0.45 0.55 0.62 0.72 0.79 0.90 0.98 0.95 0.90 0.98 1.05 1.06 1.12 1.20 1.28
0.17 0.12 0.07 0.07 0.07 0.05 0.13 0.09 0.08 0.18 0.21 0.20 0.19 0.18 0.22 0.26 0.23 0.25 0.28 0.32 0.36 0.38 0.39 0.40 0.40 0.39 0.41 0.42 0.41 0.44 0.45 0.43 0.42 0.43 0.46 0.48 0.59 0.66 0.72 0.88 0.91 0.92 0.89 0.97 1.08 1.10 1.12 1.17 1.27
0.16 0.14 0.10 0.06 0.05 0.06 0.10 0.07 0.12 0.20 0.20 0.21 0.17 0.19 0.21 0.20 0.20 0.20 0.28 0.33 0.37 0.40 0.41 0.41 0.42 0.41 0.41 0.42 0.43 0.45 0.46 0.45 0.42 0.43 0.47 0.52 0.59 0.68 0.74 0.81 0.91 0.85 0.88 0.95 1.08 1.11 1.13 1.15 1.26
0.16 0.14 0.17 0.11 0.12 0.10 0.10 0.11 0.13 0.19 0.14 0.14 0.17 0.18 0.20 0.19 0.19 0.20 0.27 0.33 0.37 0.39 0.39 0.39 0.42 0.43 0.43 0.42 0.44 0.43 0.45 0.45 0.42 0.41 0.48 0.55 0.60 0.67 0.73 0.85 0.86 0.88 0.86 0.95 1.05 1.08 1.10 1.14 1.23
0.19 0.20 0.12 0.12 0.08 0.07 0.06 0.08 0.08 0.13 0.13 0.15 0.16 0.20 0.20 0.20 0.20 0.22 0.25 0.28 0.31 0.35 0.38 0.40 0.42 0.43 0.43 0.43 0.45 0.44 0.46 0.45 0.43 0.41 0.47 0.55 0.61 0.68 0.73 0.86 0.90 0.90 0.90 1.02 1.08 1.08 1.13 1.16 1.19
0.15 0.16 0.17 0.16 0.13 0.10 0.08 0.08 0.14 0.14 0.15 0.19 0.21 0.22 0.21 0.19 0.22 0.24 0.26 0.29 0.32 0.35 0.37 0.37 0.36 0.36 0.41 0.42 0.44 0.45 0.44 0.44 0.41 0.43 0.51 0.55 0.59 0.72 0.76 0.87 0.87 0.87 0.99 1.06 1.12 1.15 1.19 1.18 1.20
0.20 0.18 0.17 0.13 0.10 0.13 0.14 0.11 0.18 0.16 0.20 0.25 0.25 0.21 0.19 0.20 0.23 0.25 0.27 0.28 0.29 0.29 0.29 0.29 0.32 0.32 0.33 0.39 0.43 0.43 0.43 0.44 0.40 0.46 0.55 0.49 0.58 0.74 0.83 0.89 0.93 1.03 1.18 1.22 1.17 1.18 1.21 1.19 1.19

GFSSGP_prec_pwat_216.txt.gz
Precipitable_Water
0.68 0.73 0.70 0.61 0.46 0.43 0.48 0.46 0.53 0.56 0.57 0.66 0.60 0.55 0.62 0.75 0.66 0.67 1.30 1.39 1.36 1.40 1.49 1.36 1.38 1.40 1.38 1.36 1.42 1.48 1.39 1.26 1.24 1.22 1.18 1.17 1.14 1.26 1.33 1.37 1.31 1.27 1.18 1.19 1.23 1.24 1.28 1.21 1.17
0.62 0.61 0.57 0.53 0.38 0.42 0.47 0.52 0.51 0.52 0.55 0.55 0.64 0.63 0.80 0.81 1.02 1.08 1.13 1.27 1.36 1.40 1.47 1.39 1.31 1.33 1.31 1.37 1.36 1.41 1.42 1.29 1.17 1.21 1.22 1.19 1.18 1.17 1.27 1.35 1.42 1.31 1.21 1.17 1.20 1.19 1.23 1.17 1.13
0.64 0.56 0.46 0.41 0.35 0.36 0.46 0.54 0.52 0.49 0.57 0.54 0.62 0.81 0.86 0.96 1.13 1.13 1.24 1.31 1.42 1.39 1.47 1.43 1.37 1.29 1.35 1.54 1.58 1.50 1.53 1.35 1.20 1.15 1.26 1.23 1.23 1.23 1.23 1.33 1.37 1.41 1.32 1.22 1.20 1.20 1.22 1.20 1.16
0.47 0.54 0.42 0.25 0.36 0.42 0.47 0.49 0.46 0.49 0.55 0.53 0.51 0.87 1.12 1.21 1.10 1.15 1.26 1.39 1.52 1.43 1.52 1.54 1.46 1.27 1.38 1.48 1.45 1.45 1.48 1.40 1.28 1.19 1.22 1.30 1.29 1.30 1.30 1.34 1.39 1.46 1.43 1.27 1.23 1.22 1.23 1.24 1.20
0.55 0.46 0.35 0.27 0.35 0.40 0.43 0.45 0.45 0.44 0.44 0.43 0.50 0.80 0.96 1.25 1.27 1.26 1.26 1.38 1.46 1.64 1.70 1.60 1.41 1.36 1.49 1.50 1.48 1.44 1.40 1.49 1.43 1.34 1.23 1.33 1.41 1.55 1.56 1.48 1.34 1.40 1.46 1.32 1.28 1.24 1.25 1.25 1.27
0.48 0.41 0.33 0.32 0.35 0.40 0.43 0.44 0.46 0.44 0.45 0.46 0.47 0.63 0.83 1.05 1.16 1.30 1.33 1.46 1.50 1.51 1.68 1.61 1.45 1.38 1.49 1.52 1.50 1.51 1.51 1.52 1.53 1.52 1.39 1.28 1.45 1.49 1.55 1.63 1.49 1.49 1.49 1.42 1.39 1.35 1.29 1.27 1.27
0.45 0.39 0.35 0.34 0.36 0.37 0.42 0.47 0.44 0.44 0.46 0.44 0.47 0.49 0.67 0.76 0.97 1.12 1.23 1.31 1.42 1.43 1.49 1.63 1.69 1.60 1.53 1.46 1.41 1.41 1.44 1.46 1.48 1.50 1.49 1.39 1.37 1.50 1.50 1.56 1.58 1.57 1.57 1.54 1.50 1.46 1.37 1.32 1.32
0.45 0.41 0.33 0.35 0.37 0.40 0.48 0.45 0.47 0.44 0.44 0.53 0.50 0.44 0.49 0.61 0.66 1.00 1.08 1.31 1.36 1.40 1.40 1.39 1.46 1.55 1.67 1.80 1.85 1.77 1.67 1.60 1.57 1.55 1.52 1.50 1.43 1.43 1.45 1.49 1.51 1.48 1.53 1.51 1.52 1.50 1.44 1.40 1.37
0.55 0.40 0.35 0.37 0.38 0.43 0.48 0.43 0.52 0.51 0.48 0.50 0.52 0.51 0.55 0.58 0.58 0.60 0.97 1.13 1.26 1.28 1.20 1.21 1.24 1.28 1.43 1.54 1.56 1.66 1.64 1.66 1.73 1.73 1.68 1.63 1.61 1.55 1.52 1.47 1.44 1.43 1.44 1.48 1.51 1.53 1.52 1.49 1.46
0.47 0.42 0.38 0.42 0.43 0.41 0.44 0.42 0.44 0.43 0.49 0.47 0.48 0.56 0.58 0.62 0.61 0.61 0.64 0.78 0.93 1.01 1.00 0.93 1.00 1.09 1.16 1.24 1.32 1.37 1.50 1.62 1.61 1.63 1.66 1.69 1.75 1.70 1.71 1.71 1.68 1.66 1.59 1.57 1.54 1.56 1.56 1.56 1.49
0.42 0.36 0.40 0.43 0.44 0.43 0.40 0.42 0.45 0.41 0.40 0.43 0.44 0.48 0.54 0.62 0.64 0.65 0.68 0.69 0.73 0.74 0.74 0.74 0.74 0.79 0.82 0.91 1.10 1.14 1.28 1.32 1.46 1.51 1.56 1.62 1.70 1.66 1.68 1.71 1.74 1.80 1.76 1.72 1.60 1.48 1.47 1.44 1.42
0.41 0.40 0.39 0.42 0.41 0.38 0.36 0.40 0.41 0.41 0.41 0.50 0.53 0.56 0.57 0.57 0.58 0.55 0.55 0.56 0.58 0.59 0.60 0.62 0.66 0.67 0.70 0.77 0.80 0.87 0.97 1.10 1.26 1.35 1.39 1.44 1.49 1.44 1.49 1.48 1.60 1.88 1.74 1.94 1.82 1.61 1.52 1.47 1.44
0.37 0.36 0.39 0.40 0.40 0.39 0.41 0.41 0.42 0.39 0.43 0.51 0.54 0.53 0.50 0.48 0.49 0.50 0.50 0.50 0.51 0.49 0.52 0.54 0.57 0.59 0.62 0.64 0.66 0.69 0.78 0.88 0.96 1.07 1.25 1.29 1.36 1.32 1.39 1.40 1.41 1.46 1.53 1.61 1.36 1.91 1.70 1.58 1.53
0.36 0.39 0.38 0.41 0.41 0.41 0.33 0.30 0.39 0.40 0.42 0.41 0.42 0.44 0.41 0.41 0.41 0.43 0.43 0.43 0.46 0.48 0.51 0.54 0.55 0.56 0.58 0.61 0.63 0.64 0.65 0.70 0.82 0.92 1.00 1.06 1.15 1.18 1.22 1.26 1.29 1.32 1.41 1.49 1.57 1.64 1.67 1.71 1.65
0.39 0.38 0.42 0.44 0.37 0.33 0.28 0.21 0.31 0.43 0.43 0.38 0.37 0.43 0.41 0.39 0.39 0.38 0.41 0.42 0.45 0.46 0.47 0.49 0.51 0.53 0.52 0.52 0.55 0.60 0.65 0.67 0.68 0.77 0.87 1.00 1.06 1.07 1.08 1.15 1.16 1.23 1.34 1.40 1.48 1.47 1.59 1.60 1.61
0.33 0.37 0.24 0.33 0.30 0.30 0.22 0.14 0.28 0.36 0.37 0.32 0.32 0.37 0.38 0.38 0.40 0.42 0.44 0.44 0.44 0.44 0.45 0.46 0.45 0.45 0.44 0.43 0.45 0.49 0.55 0.58 0.65 0.69 0.73 0.83 0.96 1.01 0.97 1.00 1.04 1.15 1.21 1.29 1.30 1.32 1.34 1.38 1.48
0.26 0.17 0.17 0.18 0.24 0.20 0.18 0.12 0.17 0.22 0.24 0.25 0.28 0.31 0.34 0.38 0.40 0.42 0.42 0.41 0.42 0.41 0.41 0.41 0.41 0.40 0.40 0.42 0.44 0.45 0.45 0.48 0.52 0.57 0.64 0.74 0.79 0.83 0.85 0.94 1.02 1.08 1.10 1.15 1.20 1.16 1.23 1.21 1.27
0.14 0.14 0.14 0.14 0.17 0.16 0.13 0.13 0.16 0.19 0.24 0.26 0.28 0.33 0.34 0.35 0.36 0.39 0.40 0.41 0.41 0.41 0.41 0.42 0.40 0.39 0.38 0.40 0.40 0.39 0.42 0.44 0.48 0.51 0.52 0.59 0.70 0.82 0.80 0.82 0.91 1.01 0.98 1.01 1.10 1.04 1.08 1.09 1.17
0.17 0.15 0.13 0.14 0.15 0.13 0.10 0.11 0.14 0.16 0.22 0.27 0.30 0.30 0.31 0.32 0.35 0.39 0.40 0.39 0.39 0.40 0.41 0.41 0.40 0.39 0.37 0.35 0.34 0.34 0.35 0.38 0.38 0.43 0.54 0.55 0.60 0.70 0.77 0.80 0.81 0.90 0.98 1.00 1.02 1.08 1.07 1.00 1.05
0.14 0.13 0.13 0.12 0.13 0.13 0.13 0.13 0.17 0.21 0.25 0.30 0.31 0.30 0.31 0.34 0.37 0.39 0.39 0.39 0.39 0.38 0.41 0.41 0.42 0.39 0.37 0.35 0.34 0.35 0.35 0.36 0.39 0.41 0.40 0.43 0.47 0.51 0.59 0.65 0.74 0.82 0.89 0.90 1.03 0.99 0.98 1.04 1.06
0.13 0.16 0.14 0.11 0.15 0.17 0.14 0.10 0.18 0.25 0.29 0.31 0.32 0.33 0.33 0.32 0.33 0.35 0.36 0.33 0.30 0.29 0.33 0.39 0.42 0.39 0.41 0.41 0.40 0.38 0.37 0.36 0.34 0.34 0.36 0.40 0.43 0.43 0.45 0.47 0.56 0.70 0.80 0.88 0.92 1.08 0.99 0.93 1.03
0.12 0.18 0.15 0.14 0.12 0.09 0.15 0.09 0.16 0.25 0.27 0.32 0.31 0.30 0.26 0.25 0.27 0.30 0.28 0.26 0.23 0.21 0.26 0.39 0.41 0.42 0.42 0.45 0.43 0.41 0.37 0.33 0.36 0.36 0.37 0.38 0.41 0.43 0.47 0.51 0.53 0.55 0.65 0.77 0.85 1.00 1.06 1.03 0.94
0.15 0.18 0.14 0.14 0.13 0.13 0.13 0.15 0.17 0.22 0.27 0.28 0.30 0.27 0.25 0.26 0.26 0.26 0.27 0.25 0.23 0.24 0.33 0.38 0.40 0.41 0.45 0.45 0.46 0.43 0.40 0.40 0.40 0.41 0.39 0.38 0.39 0.42 0.41 0.45 0.48 0.52 0.61 0.75 0.82 0.91 0.96 1.02 1.02
0.21 0.15 0.12 0.13 0.14 0.11 0.12 0.10 0.10 0.13 0.19 0.21 0.21 0.22 0.23 0.25 0.27 0.28 0.28 0.27 0.25 0.27 0.32 0.39 0.39 0.43 0.50 0.50 0.47 0.46 0.45 0.42 0.38 0.38 0.40 0.39 0.39 0.40 0.41 0.45 0.50 0.56 0.65 0.71 0.79 0.89 0.99 0.99 1.01
0.14 0.14 0.09 0.09 0.10 0.08 0.10 0.08 0.14 0.21 0.22 0.20 0.20 0.22 0.23 0.27 0.27 0.26 0.26 0.26 0.25 0.25 0.27 0.30 0.33 0.36 0.45 0.45 0.45 0.47 0.47 0.45 0.43 0.42 0.43 0.41 0.40 0.39 0.40 0.45 0.46 0.55 0.57 0.64 0.73 0.80 0.93 1.05 0.98
0.18 0.15 0.13 0.09 0.08 0.08 0.10 0.08 0.13 0.20 0.21 0.23 0.22 0.23 0.26 0.28 0.27 0.24 0.25 0.26 0.27 0.28 0.30 0.32 0.35 0.36 0.38 0.38 0.38 0.38 0.41 0.45 0.44 0.46 0.46 0.45 0.43 0.41 0.43 0.46 0.48 0.53 0.55 0.61 0.69 0.76 0.84 1.02 1.07
0.18 0.16 0.19 0.15 0.13 0.10 0.11 0.10 0.12 0.14 0.15 0.19 0.21 0.24 0.26 0.29 0.25 0.24 0.26 0.26 0.26 0.26 0.27 0.28 0.29 0.30 0.30 0.31 0.34 0.35 0.35 0.38 0.40 0.42 0.46 0.44 0.45 0.43 0.45 0.46 0.48 0.51 0.60 0.67 0.74 0.74 0.75 0.81 0.88
0.23 0.21 0.13 0.15 0.10 0.07 0.07 0.08 0.09 0.12 0.12 0.18 0.20 0.23 0.24 0.23 0.22 0.24 0.26 0.26 0.25 0.27 0.27 0.26 0.27 0.28 0.30 0.32 0.34 0.34 0.35 0.37 0.39 0.43 0.43 0.44 0.44 0.44 0.43 0.47 0.51 0.54 0.63 0.70 0.76 0.78 0.79 0.78 0.88
0.18 0.16 0.17 0.15 0.12 0.08 0.08 0.08 0.12 0.15 0.18 0.19 0.24 0.27 0.25 0.25 0.23 0.24 0.24 0.25 0.28 0.28 0.25 0.26 0.28 0.29 0.29 0.29 0.30 0.29 0.32 0.37 0.40 0.42 0.42 0.41 0.41 0.41 0.44 0.49 0.52 0.57 0.64 0.69 0.75 0.79 0.80 0.80 0.83
0.21 0.19 0.17 0.13 0.11 0.13 0.12 0.10 0.18 0.19 0.24 0.23 0.25 0.29 0.30 0.29 0.28 0.28 0.25 0.25 0.25 0.23 0.24 0.27 0.27 0.27 0.27 0.28 0.27 0.29 0.31 0.34 0.35 0.36 0.37 0.38 0.38 0.44 0.49 0.51 0.54 0.64 0.67 0.75 0.78 0.77 0.83 0.85 0.84